Savoonga, AK

11:39 AM AKDT on April 27, 2017 (GMT -0800)
Savoonga

Weather History for PASA - May, 2014

Change the Weather History Date:

Tuesday, May 13, 2014

  Actual Average Record
Temperature  
Mean Temperature 32 °F -  
Max Temperature 37 °F 31 °F 39 °F (2002)
Min Temperature 28 °F 25 °F 21 °F (2007)
Degree Days  
Heating Degree Days 32    
Moisture  
Dew Point 26 °F    
Average Humidity 76    
Maximum Humidity 93    
Minimum Humidity 60    
Precipitation  
Precipitation 0.00 in - - ()
Sea Level Pressure  
Sea Level Pressure 30.51 in    
Wind  
Wind Speed 10 mph (SSE)    
Max Wind Speed 20 mph    
Max Gust Speed 23 mph    
Visibility 10 miles    
Events      
Averages and records for this station are not official NWS values.
T = Trace of Precipitation, MM = Missing Value Source: NWS Daily Summary

Daily Weather History Graph

Daily Weather History Graph

Search for Another Location

Airport or City:

Trip Planner

Search our weather history database for the weather conditions in past years. The results will help you decide how hot, cold, wet, or windy it might be!

Date:

Astronomy

May. 13, 2014 Rise Set
Actual Time 6:17 AM AKDT 12:21 AM AKDT
Civil Twilight 4:48 AM AKDT 1:53 AM AKDT
Nautical Twilight Sun does not set Sun does not set
Astronomical Twilight Sun does not set Sun does not set
Moon 11:11 PM AKDT (5/13) 6:22 AM AKDT (5/13)
Length of Visible Light 21h 04m
Length of Day
18h 03m
Waxing Gibbous, 99% of the Moon is Illuminated
May 13
Waxing Gibbous
May 14
Full
May 21
Last Quarter
May 28
New
Jun 5
First Quarter

Hourly Weather History & Observations

Time (AKDT) Temp. Windchill Dew Point Humidity Pressure Visibility Wind Dir Wind Speed Gust Speed Precip Events Conditions
12:16 AM 30.2 °F 20.2 °F 26.6 °F 86% 30.42 in 10.0 mi SW 12.7 mph - N/A   Clear
12:36 AM 30.2 °F 17.8 °F 26.6 °F 86% 30.40 in 10.0 mi West 19.6 mph - N/A   Clear
12:56 AM 30.2 °F 19.8 °F 26.6 °F 86% 30.44 in 10.0 mi SW 13.8 mph 23.0 mph N/A   Scattered Clouds
1:16 AM 30.2 °F 17.8 °F 26.6 °F 86% 30.42 in 10.0 mi SW 19.6 mph - N/A   Overcast
1:36 AM 30.2 °F 18.5 °F 26.6 °F 86% 30.44 in 10.0 mi WSW 17.3 mph - N/A   Overcast
1:56 AM 30.2 °F 19.3 °F 28.4 °F 93% 30.44 in 10.0 mi WSW 15.0 mph 19.6 mph N/A   Overcast
2:16 AM 30.2 °F 18.5 °F 26.6 °F 86% 30.44 in 10.0 mi WSW 17.3 mph - N/A   Overcast
2:36 AM 28.4 °F 17.0 °F 26.6 °F 93% 30.45 in 10.0 mi WSW 15.0 mph 20.7 mph N/A   Overcast
2:56 AM 28.4 °F 16.6 °F 26.6 °F 93% 30.46 in 10.0 mi WSW 16.1 mph - N/A   Overcast
3:16 AM 28.4 °F 17.0 °F 26.6 °F 93% 30.46 in 10.0 mi WSW 15.0 mph - N/A   Overcast
3:36 AM 28.4 °F 17.0 °F 26.6 °F 93% 30.46 in 10.0 mi WSW 15.0 mph - N/A   Overcast
3:56 AM 28.4 °F 18.5 °F 26.6 °F 93% 30.46 in 10.0 mi WSW 11.5 mph - N/A   Partly Cloudy
4:16 AM 28.4 °F 18.5 °F 24.8 °F 86% 30.46 in 10.0 mi West 11.5 mph - N/A   Clear
5:16 AM 28.4 °F 19.7 °F 24.8 °F 86% 30.47 in 10.0 mi WSW 9.2 mph - N/A   Clear
5:36 AM 30.2 °F 21.3 °F 24.8 °F 80% 30.47 in 10.0 mi WSW 10.4 mph - N/A   Clear
5:56 AM 30.2 °F 21.9 °F 23.0 °F 75% 30.48 in 10.0 mi SW 9.2 mph - N/A   Clear
6:16 AM 30.2 °F 24.3 °F 23.0 °F 75% 30.48 in 10.0 mi WSW 5.8 mph - N/A   Clear
6:56 AM 30.2 °F 21.3 °F 21.2 °F 69% 30.49 in 10.0 mi SW 10.4 mph - N/A   Clear
8:36 AM 32.0 °F 25.6 °F 24.8 °F 75% 30.51 in 10.0 mi SW 6.9 mph - N/A   Clear
8:56 AM 32.0 °F 26.4 °F 24.8 °F 75% 30.52 in 10.0 mi SSW 5.8 mph - N/A   Clear
9:36 AM 33.8 °F 27.7 °F 24.8 °F 70% 30.52 in 10.0 mi SSW 6.9 mph - N/A   Clear
9:56 AM 35.6 °F 29.2 °F 24.8 °F 65% 30.52 in 10.0 mi SW 8.1 mph - N/A   Clear
10:16 AM 35.6 °F 29.2 °F 23.0 °F 60% 30.53 in 10.0 mi SW 8.1 mph - N/A   Clear
10:36 AM 35.6 °F 28.6 °F 24.8 °F 65% 30.54 in 10.0 mi SSW 9.2 mph - N/A   Clear
10:56 AM 35.6 °F 29.2 °F 24.8 °F 65% 30.54 in 10.0 mi SSW 8.1 mph - N/A   Clear
11:16 AM 35.6 °F 28.6 °F 24.8 °F 65% 30.54 in 10.0 mi SW 9.2 mph - N/A   Clear
11:36 AM 35.6 °F 30.7 °F 24.8 °F 65% 30.53 in 10.0 mi West 5.8 mph - N/A   Clear
11:56 AM 37.4 °F 29.8 °F 26.6 °F 65% 30.52 in 10.0 mi SSW 11.5 mph - N/A   Clear
12:16 PM 37.4 °F 29.8 °F 24.8 °F 60% 30.52 in 10.0 mi SSW 11.5 mph - N/A   Clear
12:36 PM 37.4 °F 32.1 °F 24.8 °F 60% 30.54 in 10.0 mi South 6.9 mph 16.1 mph N/A   Clear
12:56 PM 37.4 °F 32.8 °F 24.8 °F 60% 30.54 in 10.0 mi SSE 5.8 mph - N/A   Clear
1:16 PM 37.4 °F - 24.8 °F 60% 30.54 in 10.0 mi Calm Calm - N/A   Clear
1:36 PM 35.6 °F 31.7 °F 24.8 °F 65% 30.54 in 10.0 mi ENE 4.6 mph - N/A   Clear
1:56 PM 37.4 °F 34.9 °F 24.8 °F 60% 30.54 in 10.0 mi ESE 3.5 mph - N/A   Clear
2:16 PM 37.4 °F 34.9 °F 24.8 °F 60% 30.54 in 10.0 mi ENE 3.5 mph - N/A   Clear
2:36 PM 35.6 °F 30.7 °F 24.8 °F 65% 30.54 in 10.0 mi ENE 5.8 mph - N/A   Clear
2:56 PM 35.6 °F 31.7 °F 26.6 °F 70% 30.55 in 10.0 mi East 4.6 mph - N/A   Clear
3:16 PM 35.6 °F 31.7 °F 24.8 °F 65% 30.55 in 10.0 mi ENE 4.6 mph - N/A   Clear
3:36 PM 35.6 °F 29.9 °F 28.4 °F 75% 30.54 in 10.0 mi NNE 6.9 mph - N/A   Clear
4:16 PM 35.6 °F 31.7 °F 28.4 °F 75% 30.55 in 10.0 mi NE 4.6 mph - N/A   Clear
4:36 PM 35.6 °F 31.7 °F 24.8 °F 65% 30.54 in 10.0 mi NNE 4.6 mph - N/A   Clear
4:56 PM 35.6 °F 32.8 °F 26.6 °F 70% 30.55 in 10.0 mi NE 3.5 mph - N/A   Clear
5:16 PM 35.6 °F 29.9 °F 28.4 °F 75% 30.54 in 10.0 mi ENE 6.9 mph - N/A   Clear
5:36 PM 33.8 °F 27.7 °F 26.6 °F 75% 30.54 in 10.0 mi ENE 6.9 mph - N/A   Clear
5:56 PM 33.8 °F 27.7 °F 28.4 °F 81% 30.54 in 10.0 mi East 6.9 mph - N/A   Clear
6:16 PM 33.8 °F 27.7 °F 28.4 °F 81% 30.54 in 10.0 mi East 6.9 mph - N/A   Partly Cloudy
6:36 PM 33.8 °F 27.7 °F 28.4 °F 81% 30.53 in 10.0 mi East 6.9 mph - N/A   Mostly Cloudy
6:56 PM 33.8 °F 27.7 °F 28.4 °F 81% 30.54 in 10.0 mi East 6.9 mph - N/A   Overcast
7:16 PM 33.8 °F 28.6 °F 26.6 °F 75% 30.53 in 10.0 mi East 5.8 mph - N/A   Overcast
7:36 PM 33.8 °F 30.8 °F 26.6 °F 75% 30.53 in 10.0 mi East 3.5 mph - N/A   Overcast
7:56 PM 33.8 °F - 26.6 °F 75% 30.53 in 10.0 mi Calm Calm - N/A   Overcast
8:16 PM 35.6 °F 31.7 °F 26.6 °F 70% 30.52 in 10.0 mi ENE 4.6 mph - N/A   Overcast
8:36 PM 33.8 °F - 28.4 °F 81% 30.52 in 10.0 mi Calm Calm - N/A   Overcast
8:56 PM 33.8 °F 28.6 °F 28.4 °F 81% 30.52 in 10.0 mi ESE 5.8 mph - N/A   Mostly Cloudy
9:16 PM 33.8 °F 30.8 °F 26.6 °F 75% 30.52 in 10.0 mi SSE 3.5 mph - N/A   Partly Cloudy
9:36 PM 35.6 °F 31.7 °F 26.6 °F 70% 30.51 in 10.0 mi East 4.6 mph - N/A   Clear
9:56 PM 33.8 °F 27.7 °F 28.4 °F 81% 30.50 in 10.0 mi East 6.9 mph - N/A   Clear
10:16 PM 33.8 °F 28.6 °F 28.4 °F 81% 30.50 in 10.0 mi East 5.8 mph - N/A   Clear
10:36 PM 32.0 °F 26.4 °F 28.4 °F 87% 30.50 in 10.0 mi East 5.8 mph - N/A   Clear
10:56 PM 32.0 °F 25.6 °F 26.6 °F 80% 30.50 in 10.0 mi ENE 6.9 mph - N/A   Clear
11:16 PM 32.0 °F 27.5 °F 28.4 °F 87% 30.50 in 10.0 mi East 4.6 mph - N/A   Clear
11:36 PM 32.0 °F - 28.4 °F 87% 30.51 in 10.0 mi Calm Calm - N/A   Clear
11:56 PM 32.0 °F 28.7 °F 26.6 °F 80% 30.50 in 10.0 mi East 3.5 mph - N/A   Scattered Clouds